Gulf Shores, AL

2:03 PM CDT on August 25, 2016 (GMT -0500)
Edwards

Weather History for KJKA - June, 2013

Change the Weather History Date:

Tuesday, June 25, 2013

  Actual Average (KPNS) Record (KPNS)
Temperature  
Mean Temperature 78 °F 82 °F  
Max Temperature 86 °F 89 °F 99 °F (1950)
Min Temperature 71 °F 74 °F 62 °F (1974)
Cooling Degree Days 14 17  
Month to date cooling degree days 380  
Year to date cooling degree days 828  
Since 1 June cooling degree days 380  
Growing Degree Days 28 (Base 50)    
Moisture  
Dew Point 71 °F    
Average Humidity 73    
Maximum Humidity 94    
Minimum Humidity 58    
Precipitation  
Precipitation 0.00 in 0.25 in 3.72 in (1900)
Month to date precipitation 5.36  
Year to date precipitation 29.36  
Sea Level Pressure  
Sea Level Pressure 30.09 in    
Wind  
Wind Speed 2 mph (South)    
Max Wind Speed 9 mph    
Max Gust Speed -    
Visibility 10 miles    
Events Thunderstorm    
T = Trace of Precipitation, MM = Missing Value Source: NWS Daily Summary

Daily Weather History Graph

Daily Weather History Graph

Search for Another Location

Airport or City:

Trip Planner

Search our weather history database for the weather conditions in past years. The results will help you decide how hot, cold, wet, or windy it might be!

Date:

Astronomy

Jun. 25, 2013 Rise Set
Actual Time 5:50 AM CDT 7:56 PM CDT
Civil Twilight 5:22 AM CDT 8:23 PM CDT
Nautical Twilight 4:49 AM CDT 8:57 PM CDT
Astronomical Twilight 4:13 AM CDT 9:33 PM CDT
Moon 9:55 PM CDT 8:18 AM CDT
Length of Visible Light 15h 00m
Length of Day
14h 05m
Waning Gibbous, 92% of the Moon is Illuminated
Jun 25
Waning Gibbous
Jun 29
Last Quarter
Jul 8
New
Jul 15
First Quarter
Jul 22
Full

Hourly Weather History & Observations

Time (CDT) Temp. Heat Index Dew Point Humidity Pressure Visibility Wind Dir Wind Speed Gust Speed Precip Events Conditions
12:15 AM 73.4 °F - 69.8 °F 88% 30.14 in 10.0 mi Calm Calm - N/A   Scattered Clouds
12:35 AM 75.2 °F - 71.6 °F 89% 30.14 in 10.0 mi Calm Calm - N/A   Scattered Clouds
12:55 AM 73.4 °F - 71.6 °F 94% 30.12 in 10.0 mi Calm Calm - N/A   Clear
1:15 AM 73.4 °F - 69.8 °F 88% 30.12 in 7.0 mi Calm Calm - N/A   Clear
1:35 AM 73.4 °F - 69.8 °F 88% 30.12 in 7.0 mi Calm Calm - N/A   Clear
1:55 AM 73.4 °F - 71.6 °F 94% 30.12 in 7.0 mi Calm Calm - N/A   Clear
2:15 AM 73.4 °F - 71.6 °F 94% 30.10 in 7.0 mi Calm Calm - N/A   Clear
2:35 AM 71.6 °F - 69.8 °F 94% 30.10 in 7.0 mi Calm Calm - N/A   Clear
2:55 AM 71.6 °F - 69.8 °F 94% 30.09 in 7.0 mi Calm Calm - N/A   Clear
3:15 AM 71.6 °F - 69.8 °F 94% 30.09 in 5.0 mi Calm Calm - N/A   Clear
3:35 AM 73.4 °F - 69.8 °F 88% 30.09 in 10.0 mi Calm Calm - N/A   Clear
3:55 AM 73.4 °F - 69.8 °F 88% 30.09 in 10.0 mi Calm Calm - N/A   Clear
4:15 AM 73.4 °F - 69.8 °F 88% 30.09 in 7.0 mi Calm Calm - N/A   Clear
4:35 AM 73.4 °F - 69.8 °F 88% 30.10 in 10.0 mi Calm Calm - N/A   Scattered Clouds
4:55 AM 71.6 °F - 69.8 °F 94% 30.10 in 7.0 mi Calm Calm - N/A   Mostly Cloudy
5:15 AM 73.4 °F - 69.8 °F 88% 30.10 in 10.0 mi Calm Calm - N/A   Mostly Cloudy
5:35 AM 71.6 °F - 69.8 °F 94% 30.10 in 10.0 mi Calm Calm - N/A   Scattered Clouds
5:55 AM 73.4 °F - 69.8 °F 88% 30.11 in 10.0 mi North 3.5 mph - N/A   Scattered Clouds
6:15 AM 73.4 °F - 71.6 °F 94% 30.11 in 10.0 mi Calm Calm - N/A   Mostly Cloudy
6:35 AM 73.4 °F - 71.6 °F 94% 30.12 in 10.0 mi Calm Calm - N/A   Mostly Cloudy
6:55 AM 75.2 °F - 71.6 °F 89% 30.12 in 10.0 mi Calm Calm - N/A   Overcast
7:15 AM 77.0 °F - 71.6 °F 83% 30.13 in 10.0 mi Calm Calm - N/A   Mostly Cloudy
7:35 AM 78.8 °F - 73.4 °F 83% 30.13 in 10.0 mi Calm Calm - N/A   Scattered Clouds
7:55 AM 78.8 °F - 73.4 °F 83% 30.14 in 10.0 mi Calm Calm - N/A   Clear
8:15 AM 78.8 °F - 73.4 °F 83% 30.15 in 10.0 mi NE 3.5 mph - N/A   Scattered Clouds
8:35 AM 80.6 °F 85.4 °F 73.4 °F 79% 30.14 in 10.0 mi NE 3.5 mph - N/A   Mostly Cloudy
8:55 AM 82.4 °F 88.2 °F 73.4 °F 74% 30.14 in 10.0 mi North 4.6 mph - N/A   Scattered Clouds
9:15 AM 82.4 °F 87.2 °F 71.6 °F 70% 30.13 in 10.0 mi Calm Calm - N/A   Scattered Clouds
9:35 AM 82.4 °F 87.2 °F 71.6 °F 70% 30.14 in 10.0 mi North - - N/A   Scattered Clouds
9:55 AM 84.2 °F 89.6 °F 71.6 °F 66% 30.13 in 10.0 mi Calm Calm - N/A   Scattered Clouds
10:15 AM 84.2 °F 89.6 °F 71.6 °F 66% 30.14 in 10.0 mi SE 3.5 mph - N/A   Scattered Clouds
10:35 AM 86.0 °F 91.8 °F 71.6 °F 62% 30.14 in 10.0 mi South 4.6 mph - N/A   Scattered Clouds
10:55 AM 86.0 °F 91.8 °F 71.6 °F 62% 30.13 in 10.0 mi South 6.9 mph - N/A   Mostly Cloudy
11:15 AM 86.0 °F 91.8 °F 71.6 °F 62% 30.13 in 10.0 mi South 6.9 mph - N/A   Mostly Cloudy
11:35 AM 86.0 °F 91.8 °F 71.6 °F 62% 30.13 in 10.0 mi SSE 8.1 mph - N/A   Mostly Cloudy
11:55 AM 86.0 °F 91.8 °F 71.6 °F 62% 30.12 in 10.0 mi South 8.1 mph - N/A   Mostly Cloudy
12:15 PM 86.0 °F 90.4 °F 69.8 °F 58% 30.12 in 10.0 mi SSE 6.9 mph - N/A   Scattered Clouds
12:35 PM 86.0 °F 90.4 °F 69.8 °F 58% 30.12 in 10.0 mi SSE 5.8 mph - N/A   Scattered Clouds
12:55 PM 86.0 °F 91.8 °F 71.6 °F 62% 30.11 in 10.0 mi SSE 6.9 mph - N/A   Scattered Clouds
1:15 PM 86.0 °F 90.4 °F 69.8 °F 58% 30.12 in 10.0 mi South 8.1 mph - N/A Thunderstorm Scattered Clouds
1:35 PM 84.2 °F 88.4 °F 69.8 °F 62% 30.11 in 10.0 mi SSE 9.2 mph - N/A Thunderstorm Scattered Clouds
1:55 PM 84.2 °F 87.3 °F 68.0 °F 58% 30.10 in 10.0 mi South 8.1 mph - N/A   Clear
2:15 PM 84.2 °F 88.4 °F 69.8 °F 62% 30.10 in 10.0 mi South 5.8 mph - N/A   Clear
2:35 PM 84.2 °F 88.4 °F 69.8 °F 62% 30.09 in 10.0 mi SSE 5.8 mph - N/A   Scattered Clouds
2:55 PM 84.2 °F 89.6 °F 71.6 °F 66% 30.09 in 10.0 mi South 5.8 mph - N/A   Scattered Clouds
3:15 PM 86.0 °F 90.4 °F 69.8 °F 58% 30.08 in 10.0 mi SSE 6.9 mph - N/A   Scattered Clouds
3:35 PM 86.0 °F 90.4 °F 69.8 °F 58% 30.08 in 10.0 mi SSE 4.6 mph - N/A   Scattered Clouds
3:55 PM 86.0 °F 90.4 °F 69.8 °F 58% 30.07 in 10.0 mi South 8.1 mph - N/A   Clear
4:15 PM 86.0 °F 90.4 °F 69.8 °F 58% 30.06 in 10.0 mi South 8.1 mph - N/A   Clear
4:35 PM 86.0 °F 90.4 °F 69.8 °F 58% 30.07 in 10.0 mi ESE 5.8 mph - N/A   Scattered Clouds
4:55 PM 86.0 °F 90.4 °F 69.8 °F 58% 30.05 in 10.0 mi South 6.9 mph - N/A   Scattered Clouds
5:15 PM 86.0 °F 90.4 °F 69.8 °F 58% 30.05 in 10.0 mi South 6.9 mph - N/A   Scattered Clouds
5:35 PM 86.0 °F 90.4 °F 69.8 °F 58% 30.05 in 10.0 mi South 6.9 mph - N/A   Scattered Clouds
5:55 PM 86.0 °F 90.4 °F 69.8 °F 58% 30.05 in 10.0 mi South 6.9 mph - N/A   Scattered Clouds
6:15 PM 86.0 °F 90.4 °F 69.8 °F 58% 30.05 in 10.0 mi South 5.8 mph - N/A   Scattered Clouds
6:35 PM 84.2 °F 88.4 °F 69.8 °F 62% 30.05 in 10.0 mi SSW 3.5 mph - N/A   Clear
6:55 PM 84.2 °F 88.4 °F 69.8 °F 62% 30.05 in 10.0 mi North - - N/A   Clear
7:15 PM 82.4 °F 86.3 °F 69.8 °F 66% 30.05 in 10.0 mi North - - N/A   Clear
7:35 PM 82.4 °F 86.3 °F 69.8 °F 66% 30.05 in 10.0 mi SSW 4.6 mph - N/A   Clear
7:55 PM 80.6 °F 83.9 °F 69.8 °F 70% 30.06 in 10.0 mi South 3.5 mph - N/A   Clear
8:15 PM 80.6 °F 83.9 °F 69.8 °F 70% 30.05 in 10.0 mi South 5.8 mph - N/A   Clear
8:35 PM 80.6 °F 83.9 °F 69.8 °F 70% 30.06 in 10.0 mi South 4.6 mph - N/A   Clear
8:55 PM 80.6 °F 83.9 °F 69.8 °F 70% 30.06 in 10.0 mi South 3.5 mph - N/A   Scattered Clouds
9:15 PM 80.6 °F 83.9 °F 69.8 °F 70% 30.07 in 10.0 mi Calm Calm - N/A   Scattered Clouds
9:35 PM 80.6 °F 84.6 °F 71.6 °F 74% 30.07 in 10.0 mi SE 3.5 mph - N/A   Scattered Clouds
9:55 PM 80.6 °F 84.6 °F 71.6 °F 74% 30.07 in 10.0 mi SSE 3.5 mph - N/A   Scattered Clouds
10:15 PM 78.8 °F - 71.6 °F 78% 30.07 in 10.0 mi SSE 3.5 mph - N/A   Clear
10:35 PM 80.6 °F 83.9 °F 69.8 °F 70% 30.06 in 10.0 mi South 4.6 mph - N/A   Clear
10:55 PM 80.6 °F 83.9 °F 69.8 °F 70% 30.06 in 10.0 mi South 5.8 mph - N/A   Scattered Clouds
11:15 PM 80.6 °F 83.9 °F 69.8 °F 70% 30.05 in 10.0 mi South 5.8 mph - N/A   Scattered Clouds
11:35 PM 80.6 °F 83.9 °F 69.8 °F 70% 30.04 in 10.0 mi South 5.8 mph - N/A   Scattered Clouds
11:55 PM 80.6 °F 83.9 °F 69.8 °F 70% 30.05 in 10.0 mi South 3.5 mph - N/A   Clear